RBO404 KDFW-KMCO

Flight info

Callsign RBO404
Flight time 2h 3m
Altitude 35000
Route FORCK3 FORCK HAWES WINAP ORRKK ARNNY DEEDA GRNCH5
Aircraft B738/M-SDE2E3FGHIRWXY/LB1

Departure

Time 2026-05-05 00:15
Airport Dallas Fort Worth International Airport (KDFW)

Arrival

Time 2026-05-05 02:19
Airport Orlando International Airport (KMCO)
Time Latitude Longitude Altitude Speed Heading
2026-05-04 23:48 32.88814 -97.03613 583 ft 0 kts 322°
2026-05-04 23:50 32.88792 -97.03650 583 ft 0 kts 322°
2026-05-05 00:01 32.88787 -97.03645 583 ft 4 kts 321°
2026-05-05 00:01 32.88769 -97.03628 583 ft 2 kts 322°
2026-05-05 00:02 32.88757 -97.03612 583 ft 2 kts 307°
2026-05-05 00:02 32.88756 -97.03610 583 ft 0 kts 307°
2026-05-05 00:05 32.88756 -97.03611 583 ft 0 kts 307°
2026-05-05 00:05 32.88758 -97.03615 583 ft 3 kts 295°
2026-05-05 00:06 32.88750 -97.03635 583 ft 4 kts 192°
2026-05-05 00:06 32.88694 -97.03578 583 ft 16 kts 137°
2026-05-05 00:06 32.88615 -97.03510 583 ft 10 kts 119°
2026-05-05 00:06 32.88605 -97.03418 582 ft 11 kts 92°
2026-05-05 00:07 32.88614 -97.03351 582 ft 5 kts 62°
2026-05-05 00:07 32.88696 -97.03322 582 ft 17 kts 359°
2026-05-05 00:07 32.88807 -97.03322 582 ft 15 kts
2026-05-05 00:07 32.88916 -97.03320 581 ft 16 kts
2026-05-05 00:08 32.89019 -97.03320 582 ft 18 kts
2026-05-05 00:08 32.89141 -97.03320 582 ft 15 kts 360°
2026-05-05 00:08 32.89224 -97.03320 582 ft 10 kts
2026-05-05 00:08 32.89322 -97.03318 583 ft 16 kts 360°
2026-05-05 00:09 32.89428 -97.03318 584 ft 15 kts 359°
2026-05-05 00:09 32.89526 -97.03317 585 ft 17 kts
2026-05-05 00:09 32.89645 -97.03316 585 ft 15 kts 360°
2026-05-05 00:09 32.89775 -97.03315 585 ft 26 kts 360°
2026-05-05 00:10 32.89938 -97.03315 585 ft 21 kts
2026-05-05 00:10 32.90081 -97.03315 584 ft 21 kts
2026-05-05 00:10 32.90218 -97.03314 584 ft 23 kts
2026-05-05 00:10 32.90364 -97.03312 584 ft 18 kts
2026-05-05 00:11 32.90480 -97.03312 584 ft 19 kts 360°
2026-05-05 00:11 32.90603 -97.03312 584 ft 17 kts 360°
2026-05-05 00:11 32.90726 -97.03310 584 ft 18 kts
2026-05-05 00:11 32.90856 -97.03310 585 ft 18 kts
2026-05-05 00:12 32.91012 -97.03290 580 ft 24 kts 20°
2026-05-05 00:12 32.91128 -97.03275 579 ft 18 kts
2026-05-05 00:12 32.91236 -97.03272 580 ft 14 kts 359°
2026-05-05 00:12 32.91350 -97.03273 580 ft 22 kts
2026-05-05 00:13 32.91479 -97.03245 575 ft 13 kts 57°
2026-05-05 00:13 32.91487 -97.03155 581 ft 18 kts 89°
2026-05-05 00:13 32.91486 -97.03112 581 ft 0 kts 90°
2026-05-05 00:14 32.91486 -97.03096 580 ft 9 kts 90°
2026-05-05 00:14 32.91477 -97.03017 577 ft 14 kts 123°
2026-05-05 00:14 32.91271 -97.02989 577 ft 58 kts 180°
2026-05-05 00:15 32.90626 -97.02993 578 ft 125 kts 180°
2026-05-05 00:15 32.89571 -97.03025 675 ft 170 kts 184°
2026-05-05 00:15 32.88349 -97.03134 1252 ft 185 kts 185°
2026-05-05 00:15 32.87064 -97.03141 2185 ft 177 kts 180°
2026-05-05 00:16 32.85859 -97.03086 3033 ft 175 kts 180°
2026-05-05 00:16 32.84548 -97.03040 3292 ft 200 kts 180°
2026-05-05 00:16 32.83127 -97.03004 3471 ft 219 kts 180°
2026-05-05 00:16 32.81533 -97.02979 3730 ft 233 kts 181°
2026-05-05 00:17 32.79896 -97.02969 4161 ft 237 kts 181°
2026-05-05 00:17 32.78237 -97.02970 4652 ft 240 kts 181°
2026-05-05 00:17 32.76552 -97.02978 5031 ft 249 kts 181°
2026-05-05 00:17 32.74766 -97.02989 5350 ft 262 kts 181°
2026-05-05 00:18 32.72924 -97.02891 5971 ft 268 kts 168°
2026-05-05 00:18 32.71258 -97.01890 6708 ft 273 kts 139°
2026-05-05 00:18 32.70149 -97.00050 7383 ft 280 kts 114°
2026-05-05 00:18 32.69593 -96.97820 8051 ft 284 kts 105°
2026-05-05 00:19 32.69126 -96.95525 8703 ft 288 kts 105°
2026-05-05 00:19 32.68786 -96.93171 9326 ft 293 kts 91°
2026-05-05 00:19 32.68952 -96.90752 9983 ft 296 kts 85°
2026-05-05 00:19 32.69168 -96.88276 10402 ft 308 kts 86°
2026-05-05 00:20 32.69367 -96.85653 10559 ft 329 kts 86°
2026-05-05 00:20 32.69495 -96.83824 10666 ft 342 kts 86°
2026-05-05 00:20 32.69690 -96.80944 10905 ft 357 kts 86°
2026-05-05 00:20 32.70053 -96.77998 11401 ft 364 kts 78°
2026-05-05 00:21 32.70880 -96.74114 12246 ft 368 kts 76°
2026-05-05 00:21 32.71341 -96.72133 12685 ft 369 kts 75°
2026-05-05 00:21 32.72249 -96.68213 13493 ft 374 kts 76°
2026-05-05 00:21 32.72705 -96.66197 13907 ft 376 kts 76°
2026-05-05 00:22 32.73372 -96.63178 14526 ft 379 kts 76°
2026-05-05 00:22 32.74033 -96.60127 15147 ft 383 kts 76°
2026-05-05 00:22 32.74321 -96.58786 15416 ft 384 kts 76°
2026-05-05 00:22 32.74837 -96.56366 15878 ft 387 kts 77°
2026-05-05 00:23 32.75498 -96.53251 16473 ft 390 kts 77°
2026-05-05 00:23 32.76162 -96.50115 17049 ft 393 kts 77°
2026-05-05 00:23 32.76830 -96.46954 17606 ft 397 kts 77°
2026-05-05 00:23 32.77504 -96.43759 18152 ft 400 kts 77°
2026-05-05 00:24 32.78183 -96.40544 18685 ft 403 kts 77°
2026-05-05 00:24 32.78865 -96.37306 19206 ft 406 kts 77°
2026-05-05 00:24 32.79553 -96.34034 19710 ft 409 kts 77°
2026-05-05 00:24 32.80133 -96.30712 20204 ft 412 kts 82°
2026-05-05 00:25 32.80510 -96.27329 20689 ft 414 kts 84°
2026-05-05 00:25 32.80818 -96.23913 21150 ft 417 kts 85°
2026-05-05 00:25 32.81119 -96.20470 21609 ft 420 kts 85°
2026-05-05 00:25 32.81436 -96.17011 22049 ft 423 kts 84°
2026-05-05 00:26 32.81756 -96.13699 22459 ft 426 kts 84°
2026-05-05 00:26 32.82107 -96.10200 22878 ft 428 kts 84°
2026-05-05 00:26 32.82469 -96.06673 23289 ft 431 kts 84°
2026-05-05 00:26 32.82834 -96.03125 23688 ft 434 kts 84°
2026-05-05 00:27 32.83201 -95.99560 24009 ft 439 kts 80°
2026-05-05 00:27 32.83579 -95.95892 24008 ft 453 kts 79°
2026-05-05 00:27 32.83966 -95.92129 24094 ft 465 kts 79°
2026-05-05 00:27 32.84360 -95.88258 24133 ft 477 kts 79°
2026-05-05 00:28 32.84762 -95.84305 24201 ft 487 kts 79°
2026-05-05 00:28 32.85170 -95.80268 24291 ft 497 kts 79°
2026-05-05 00:28 32.85585 -95.76165 24521 ft 501 kts 79°
2026-05-05 00:28 32.86000 -95.72039 24840 ft 503 kts 79°
2026-05-05 00:29 32.86414 -95.67896 25189 ft 505 kts 79°
2026-05-05 00:29 32.86829 -95.63739 25496 ft 507 kts 79°
2026-05-05 00:29 32.87245 -95.59560 25781 ft 510 kts 78°
2026-05-05 00:29 32.87660 -95.55373 26054 ft 513 kts 79°
2026-05-05 00:30 32.88078 -95.51140 26349 ft 515 kts 78°
2026-05-05 00:30 32.88495 -95.46906 26631 ft 517 kts 78°
2026-05-05 00:30 32.88915 -95.42641 26879 ft 520 kts 78°
2026-05-05 00:30 32.89335 -95.38355 27098 ft 523 kts 78°
2026-05-05 00:31 32.89754 -95.34050 27349 ft 525 kts 78°
2026-05-05 00:31 32.90174 -95.29728 27585 ft 527 kts 78°
2026-05-05 00:31 32.90595 -95.25386 27819 ft 530 kts 78°
2026-05-05 00:31 32.91018 -95.21025 28043 ft 532 kts 78°
2026-05-05 00:32 32.91440 -95.16637 28272 ft 534 kts 78°
2026-05-05 00:32 32.91858 -95.12252 28497 ft 536 kts 78°
2026-05-05 00:32 32.92280 -95.07825 28725 ft 538 kts 78°
2026-05-05 00:32 32.92701 -95.03388 28893 ft 541 kts 77°
2026-05-05 00:33 32.93124 -94.98921 29074 ft 544 kts 77°
2026-05-05 00:33 32.93545 -94.94442 29281 ft 546 kts 77°
2026-05-05 00:33 32.93966 -94.89951 29526 ft 547 kts 77°
2026-05-05 00:33 32.94385 -94.85453 29875 ft 545 kts 77°
2026-05-05 00:34 32.94800 -94.80973 30190 ft 545 kts 77°
2026-05-05 00:34 32.95214 -94.76510 30398 ft 546 kts 77°
2026-05-05 00:34 32.95632 -94.72006 30570 ft 548 kts 77°
2026-05-05 00:34 32.96048 -94.67496 30790 ft 549 kts 77°
2026-05-05 00:35 32.96456 -94.63042 31096 ft 548 kts 77°
2026-05-05 00:35 32.96866 -94.58540 31435 ft 546 kts 77°
2026-05-05 00:35 32.97275 -94.54038 31685 ft 547 kts 76°
2026-05-05 00:35 32.97684 -94.49538 31871 ft 548 kts 76°
2026-05-05 00:36 32.98093 -94.45021 32055 ft 549 kts 76°
2026-05-05 00:36 32.98498 -94.40503 32321 ft 549 kts 76°
2026-05-05 00:36 32.98901 -94.35991 32617 ft 548 kts 76°
2026-05-05 00:36 32.99303 -94.31480 32868 ft 548 kts 76°
2026-05-05 00:37 32.99700 -94.26959 33052 ft 550 kts 77°
2026-05-05 00:37 32.99892 -94.22377 33212 ft 558 kts 83°
2026-05-05 00:37 32.99842 -94.17687 33439 ft 561 kts 85°
2026-05-05 00:37 32.99675 -94.13042 33683 ft 561 kts 86°
2026-05-05 00:38 32.99477 -94.08390 33891 ft 562 kts 86°
2026-05-05 00:38 32.99297 -94.03819 34235 ft 558 kts 86°
2026-05-05 00:38 32.99143 -93.99165 34638 ft 553 kts 85°
2026-05-05 00:38 32.99022 -93.94665 34901 ft 550 kts 84°
2026-05-05 00:39 32.98921 -93.90099 34860 ft 553 kts 84°
2026-05-05 00:39 32.98735 -93.80970 34869 ft 548 kts 84°
2026-05-05 00:40 32.98539 -93.71946 34888 ft 544 kts 84°
2026-05-05 00:40 32.98332 -93.62939 34881 ft 543 kts 84°
2026-05-05 00:41 32.98114 -93.53954 34891 ft 543 kts 84°
2026-05-05 00:41 32.97890 -93.44971 34891 ft 543 kts 84°
2026-05-05 00:42 32.97659 -93.35974 34889 ft 544 kts 84°
2026-05-05 00:42 32.97420 -93.26961 34888 ft 545 kts 84°
2026-05-05 00:43 32.97176 -93.17930 34881 ft 547 kts 84°
2026-05-05 00:43 32.96925 -93.08881 34886 ft 547 kts 84°
2026-05-05 00:44 32.96665 -92.99818 34892 ft 548 kts 85°
2026-05-05 00:44 32.96399 -92.90745 34889 ft 549 kts 85°
2026-05-05 00:45 32.96078 -92.81659 34891 ft 551 kts 87°
2026-05-05 00:45 32.95387 -92.72553 34904 ft 553 kts 89°
2026-05-05 00:46 32.94563 -92.63450 34896 ft 553 kts 90°
2026-05-05 00:46 32.93760 -92.54360 34910 ft 551 kts 89°
2026-05-05 00:47 32.92999 -92.45290 34903 ft 550 kts 89°
2026-05-05 00:47 32.92245 -92.36234 34909 ft 549 kts 89°
2026-05-05 00:48 32.91483 -92.27196 34916 ft 548 kts 89°
2026-05-05 00:48 32.90712 -92.18171 34918 ft 548 kts 89°
2026-05-05 00:49 32.89936 -92.09188 34924 ft 547 kts 89°
2026-05-05 00:49 32.89159 -92.00249 34928 ft 547 kts 89°
2026-05-05 00:50 32.88369 -91.91258 34940 ft 546 kts 89°
2026-05-05 00:50 32.87582 -91.82266 34934 ft 546 kts 89°
2026-05-05 00:51 32.86780 -91.73281 34935 ft 547 kts 89°
2026-05-05 00:51 32.85970 -91.64282 34938 ft 548 kts 89°
2026-05-05 00:52 32.85150 -91.55279 34945 ft 547 kts 89°
2026-05-05 00:52 32.84326 -91.46279 34929 ft 547 kts 89°
2026-05-05 00:53 32.83498 -91.37285 34944 ft 547 kts 89°
2026-05-05 00:53 32.82661 -91.28292 34946 ft 547 kts 89°
2026-05-05 00:54 32.81818 -91.19301 34943 ft 547 kts 89°
2026-05-05 00:54 32.80974 -91.10309 34948 ft 547 kts 89°
2026-05-05 00:55 32.80121 -91.01319 34946 ft 547 kts 89°
2026-05-05 00:55 32.79260 -90.92327 34957 ft 547 kts 90°
2026-05-05 00:56 32.78392 -90.83337 34955 ft 547 kts 89°
2026-05-05 00:56 32.77514 -90.74353 34952 ft 548 kts 89°
2026-05-05 00:57 32.76635 -90.65368 34954 ft 548 kts 89°
2026-05-05 00:57 32.75748 -90.56372 34952 ft 548 kts 89°
2026-05-05 00:58 32.74857 -90.47400 34957 ft 547 kts 89°
2026-05-05 00:58 32.73960 -90.38426 34952 ft 547 kts 89°
2026-05-05 00:59 32.73054 -90.29479 34951 ft 546 kts 89°
2026-05-05 00:59 32.72146 -90.20539 34955 ft 545 kts 89°
2026-05-05 01:00 32.71233 -90.11606 34948 ft 546 kts 89°
2026-05-05 01:00 32.70311 -90.02661 34964 ft 545 kts 89°
2026-05-05 01:01 32.69382 -89.93733 34965 ft 544 kts 89°
2026-05-05 01:01 32.68453 -89.84828 34954 ft 544 kts 90°
2026-05-05 01:02 32.67512 -89.75907 34954 ft 544 kts 90°
2026-05-05 01:02 32.66568 -89.67006 34957 ft 543 kts 90°
2026-05-05 01:03 32.65623 -89.58134 34964 ft 541 kts 90°
2026-05-05 01:03 32.64675 -89.49287 34961 ft 540 kts 90°
2026-05-05 01:04 32.63720 -89.40458 34966 ft 539 kts 90°
2026-05-05 01:04 32.62606 -89.27254 34967 ft 533 kts 86°
2026-05-05 01:05 32.62141 -89.18576 34973 ft 532 kts 85°
2026-05-05 01:05 32.61652 -89.09840 34972 ft 531 kts 86°
2026-05-05 01:06 32.61120 -89.01110 34983 ft 530 kts 86°
2026-05-05 01:06 32.60559 -88.92385 34998 ft 532 kts 86°
2026-05-05 01:07 32.60085 -88.85051 34998 ft 533 kts 87°
2026-05-05 01:07 32.59514 -88.76283 34988 ft 533 kts 87°
2026-05-05 01:08 32.58936 -88.67504 34986 ft 534 kts 87°
2026-05-05 01:08 32.58353 -88.58740 34977 ft 533 kts 87°
2026-05-05 01:09 32.57769 -88.49973 34976 ft 533 kts 87°
2026-05-05 01:09 32.57183 -88.41281 34982 ft 532 kts 87°
2026-05-05 01:10 32.56582 -88.32545 34985 ft 531 kts 87°
2026-05-05 01:10 32.55979 -88.23815 34978 ft 531 kts 87°
2026-05-05 01:11 32.55382 -88.15202 34978 ft 529 kts 87°
2026-05-05 01:11 32.54769 -88.06513 34997 ft 528 kts 87°
2026-05-05 01:12 32.54153 -87.97832 34983 ft 528 kts 88°
2026-05-05 01:12 32.52878 -87.89211 35005 ft 535 kts 98°
2026-05-05 01:13 32.51092 -87.80648 34986 ft 535 kts 99°
2026-05-05 01:13 32.49316 -87.72107 34987 ft 534 kts 98°
2026-05-05 01:14 32.47586 -87.63563 34987 ft 533 kts 98°
2026-05-05 01:14 32.45880 -87.55040 34998 ft 532 kts 98°
2026-05-05 01:15 32.44169 -87.46514 35001 ft 532 kts 98°
2026-05-05 01:15 32.42448 -87.38005 35004 ft 531 kts 98°
2026-05-05 01:16 32.40723 -87.29511 34999 ft 530 kts 99°
2026-05-05 01:16 32.38996 -87.21036 35008 ft 530 kts 99°
2026-05-05 01:17 32.37266 -87.12571 35012 ft 529 kts 99°
2026-05-05 01:17 32.35535 -87.04113 35007 ft 529 kts 99°
2026-05-05 01:18 32.33404 -86.95794 35008 ft 532 kts 112°
2026-05-05 01:18 32.30344 -86.87845 35014 ft 531 kts 114°
2026-05-05 01:19 32.27227 -86.79931 35018 ft 531 kts 114°
2026-05-05 01:19 32.24162 -86.72017 35004 ft 530 kts 113°
2026-05-05 01:20 32.21129 -86.64107 35013 ft 528 kts 113°
2026-05-05 01:20 32.18120 -86.56254 35012 ft 528 kts 113°
2026-05-05 01:21 32.15090 -86.48370 35020 ft 527 kts 113°
2026-05-05 01:21 32.12054 -86.40497 35021 ft 527 kts 114°
2026-05-05 01:22 32.09012 -86.32631 35013 ft 527 kts 114°
2026-05-05 01:22 32.05962 -86.24763 35023 ft 527 kts 114°
2026-05-05 01:23 32.02906 -86.16894 35027 ft 528 kts 114°
2026-05-05 01:23 31.99842 -86.09023 35029 ft 529 kts 114°
2026-05-05 01:24 31.96768 -86.01142 35043 ft 530 kts 114°
2026-05-05 01:24 31.93682 -85.93252 35041 ft 531 kts 114°
2026-05-05 01:25 31.90588 -85.85356 35032 ft 532 kts 114°
2026-05-05 01:25 31.87487 -85.77460 35035 ft 532 kts 114°
2026-05-05 01:26 31.84378 -85.69566 35036 ft 532 kts 114°
2026-05-05 01:26 31.81265 -85.61676 35039 ft 531 kts 114°
2026-05-05 01:27 31.78176 -85.53862 35041 ft 531 kts 114°
2026-05-05 01:27 31.75060 -85.45997 35047 ft 530 kts 115°
2026-05-05 01:28 31.71944 -85.38153 35049 ft 529 kts 114°
2026-05-05 01:28 31.68828 -85.30329 35059 ft 528 kts 115°
2026-05-05 01:29 31.65722 -85.22539 35041 ft 521 kts 115°
2026-05-05 01:29 31.62694 -85.14963 35046 ft 509 kts 115°
2026-05-05 01:30 31.59691 -85.07465 35061 ft 507 kts 115°
2026-05-05 01:30 31.56701 -84.99968 35060 ft 507 kts 113°
2026-05-05 01:31 31.54201 -84.92250 35056 ft 506 kts 108°
2026-05-05 01:31 31.51945 -84.84451 35058 ft 505 kts 108°
2026-05-05 01:32 31.49638 -84.76675 35056 ft 505 kts 109°
2026-05-05 01:32 31.47270 -84.68930 35056 ft 505 kts 109°
2026-05-05 01:33 31.44881 -84.61204 35051 ft 505 kts 110°
2026-05-05 01:33 31.42493 -84.53486 35059 ft 504 kts 110°
2026-05-05 01:34 31.40129 -84.45758 35048 ft 503 kts 104°
2026-05-05 01:34 31.39547 -84.41749 35063 ft 498 kts 90°
2026-05-05 01:34 31.39463 -84.37708 35057 ft 496 kts 86°
2026-05-05 01:35 31.39588 -84.29637 35054 ft 496 kts 85°
2026-05-05 01:35 31.39786 -84.21579 35065 ft 495 kts 85°
2026-05-05 01:36 31.40007 -84.13516 35080 ft 498 kts 85°
2026-05-05 01:36 31.40131 -84.05334 35056 ft 508 kts 94°
2026-05-05 01:37 31.39423 -84.01280 35073 ft 510 kts 109°
2026-05-05 01:37 31.38043 -83.97471 35066 ft 509 kts 121°
2026-05-05 01:37 31.34679 -83.90211 35059 ft 505 kts 119°
2026-05-05 01:38 31.31522 -83.82951 35055 ft 498 kts 118°
2026-05-05 01:38 31.28424 -83.75701 35073 ft 499 kts 118°
2026-05-05 01:39 31.25311 -83.68448 35062 ft 500 kts 118°
2026-05-05 01:39 31.22175 -83.61183 35068 ft 500 kts 119°
2026-05-05 01:40 31.19035 -83.53931 35063 ft 501 kts 119°
2026-05-05 01:40 31.15886 -83.46675 35068 ft 501 kts 119°
2026-05-05 01:41 31.12730 -83.39419 35062 ft 501 kts 119°
2026-05-05 01:41 31.09571 -83.32164 35052 ft 501 kts 119°
2026-05-05 01:42 31.06415 -83.24929 35046 ft 500 kts 119°
2026-05-05 01:42 31.03258 -83.17707 35041 ft 499 kts 119°
2026-05-05 01:43 31.00103 -83.10508 35030 ft 498 kts 120°
2026-05-05 01:43 30.96954 -83.03333 35041 ft 496 kts 120°
2026-05-05 01:44 30.93815 -82.96189 35050 ft 495 kts 120°
2026-05-05 01:44 30.90674 -82.89059 35055 ft 494 kts 120°
2026-05-05 01:45 30.88912 -82.85667 35038 ft 487 kts 135°
2026-05-05 01:45 30.86498 -82.83003 35096 ft 474 kts 148°
2026-05-05 01:45 30.81260 -82.78355 35075 ft 473 kts 149°
2026-05-05 01:46 30.76001 -82.73737 35068 ft 474 kts 149°
2026-05-05 01:46 30.70774 -82.69071 35075 ft 475 kts 148°
2026-05-05 01:47 30.65548 -82.64369 35074 ft 475 kts 148°
2026-05-05 01:47 30.60324 -82.59665 35079 ft 475 kts 148°
2026-05-05 01:48 30.55126 -82.54994 35071 ft 476 kts 148°
2026-05-05 01:48 30.49888 -82.50297 35078 ft 476 kts 148°
2026-05-05 01:49 30.45500 -82.46367 35070 ft 476 kts 148°
2026-05-05 01:49 30.39412 -82.40923 35075 ft 475 kts 148°
2026-05-05 01:50 30.34176 -82.36247 35076 ft 475 kts 148°
2026-05-05 01:50 30.29793 -82.32337 34996 ft 477 kts 148°
2026-05-05 01:51 30.27154 -82.29988 34618 ft 478 kts 148°
2026-05-05 01:51 30.24527 -82.27646 34240 ft 476 kts 148°
2026-05-05 01:51 30.21906 -82.25322 33811 ft 472 kts 151°
2026-05-05 01:51 30.19083 -82.23528 33362 ft 457 kts 169°
2026-05-05 01:52 30.16038 -82.22712 32977 ft 446 kts 179°
2026-05-05 01:52 30.12969 -82.22154 32543 ft 448 kts 179°
2026-05-05 01:52 30.09887 -82.21605 32111 ft 449 kts 179°
2026-05-05 01:52 30.06800 -82.21037 31663 ft 451 kts 179°
2026-05-05 01:53 30.03697 -82.20444 31251 ft 451 kts 178°
2026-05-05 01:53 30.00604 -82.19837 30825 ft 451 kts 178°
2026-05-05 01:53 29.97504 -82.19222 30402 ft 452 kts 178°
2026-05-05 01:53 29.94410 -82.18606 29968 ft 452 kts 178°
2026-05-05 01:54 29.91311 -82.17993 29533 ft 452 kts 178°
2026-05-05 01:54 29.88212 -82.17378 29101 ft 452 kts 178°
2026-05-05 01:54 29.85112 -82.16760 28661 ft 452 kts 178°
2026-05-05 01:54 29.82009 -82.16141 28219 ft 453 kts 177°
2026-05-05 01:55 29.78899 -82.15520 27760 ft 454 kts 177°
2026-05-05 01:55 29.75779 -82.14899 27306 ft 453 kts 177°
2026-05-05 01:55 29.72691 -82.14281 26843 ft 448 kts 176°
2026-05-05 01:55 29.69654 -82.13672 26381 ft 438 kts 176°
2026-05-05 01:56 29.66695 -82.13079 25941 ft 426 kts 176°
2026-05-05 01:56 29.63813 -82.12504 25516 ft 416 kts 176°
2026-05-05 01:56 29.60994 -82.11944 25099 ft 406 kts 176°
2026-05-05 01:56 29.58246 -82.11400 24697 ft 396 kts 176°
2026-05-05 01:57 29.55588 -82.10876 24300 ft 391 kts 176°
2026-05-05 01:57 29.52917 -82.10351 23927 ft 388 kts 176°
2026-05-05 01:57 29.50262 -82.09827 23537 ft 385 kts 176°
2026-05-05 01:57 29.47627 -82.09306 23149 ft 383 kts 176°
2026-05-05 01:58 29.45043 -82.08793 22930 ft 375 kts 176°
2026-05-05 01:58 29.42478 -82.08285 22556 ft 373 kts 176°
2026-05-05 01:58 29.39931 -82.07783 22196 ft 370 kts 176°
2026-05-05 01:58 29.37399 -82.07285 21822 ft 368 kts 176°
2026-05-05 01:59 29.34882 -82.06788 21452 ft 366 kts 175°
2026-05-05 01:59 29.32382 -82.06295 21070 ft 364 kts 175°
2026-05-05 01:59 29.29925 -82.05578 20684 ft 370 kts 159°
2026-05-05 01:59 29.27677 -82.04180 20412 ft 367 kts 155°
2026-05-05 02:00 29.25453 -82.02732 19998 ft 367 kts 155°
2026-05-05 02:00 29.23240 -82.01299 19640 ft 364 kts 155°
2026-05-05 02:00 29.21035 -81.99886 19277 ft 362 kts 155°
2026-05-05 02:00 29.18843 -81.98496 18915 ft 360 kts 155°
2026-05-05 02:01 29.16653 -81.97114 18547 ft 358 kts 155°
2026-05-05 02:01 29.14473 -81.95743 18184 ft 356 kts 155°
2026-05-05 02:01 29.12308 -81.94383 17821 ft 355 kts 155°
2026-05-05 02:01 29.10147 -81.93027 17438 ft 353 kts 155°
2026-05-05 02:02 29.07992 -81.91674 17015 ft 353 kts 154°
2026-05-05 02:02 29.05963 -81.90094 16669 ft 355 kts 141°
2026-05-05 02:02 29.04176 -81.88162 16379 ft 352 kts 139°
2026-05-05 02:02 29.02426 -81.86221 16005 ft 350 kts 139°
2026-05-05 02:03 29.00670 -81.84307 15647 ft 348 kts 139°
2026-05-05 02:03 28.98914 -81.82413 15293 ft 346 kts 139°
2026-05-05 02:03 28.97229 -81.80457 14938 ft 346 kts 132°
2026-05-05 02:03 28.95750 -81.78298 14596 ft 344 kts 128°
2026-05-05 02:04 28.94340 -81.76101 14243 ft 342 kts 128°
2026-05-05 02:04 28.92934 -81.73922 13893 ft 340 kts 128°
2026-05-05 02:04 28.91517 -81.71770 13542 ft 338 kts 129°
2026-05-05 02:04 28.90098 -81.69650 13187 ft 333 kts 129°
2026-05-05 02:05 28.88702 -81.67581 12838 ft 325 kts 129°
2026-05-05 02:05 28.87335 -81.65559 12503 ft 319 kts 129°
2026-05-05 02:05 28.86898 -81.64913 12402 ft 316 kts 129°
2026-05-05 02:05 28.85672 -81.63100 12106 ft 310 kts 129°
2026-05-05 02:06 28.84362 -81.61163 11799 ft 307 kts 129°
2026-05-05 02:06 28.83058 -81.59235 11492 ft 306 kts 129°
2026-05-05 02:06 28.81763 -81.57322 11244 ft 302 kts 129°
2026-05-05 02:06 28.80497 -81.55452 11117 ft 294 kts 129°
2026-05-05 02:07 28.79076 -81.53833 10874 ft 288 kts 150°
2026-05-05 02:07 28.77332 -81.52771 10650 ft 283 kts 154°
2026-05-05 02:07 28.75584 -81.51748 10349 ft 282 kts 154°
2026-05-05 02:07 28.73853 -81.50730 10166 ft 277 kts 154°
2026-05-05 02:08 28.72166 -81.49732 10033 ft 269 kts 153°
2026-05-05 02:08 28.70520 -81.48751 9799 ft 267 kts 153°
2026-05-05 02:08 28.68932 -81.47804 9549 ft 265 kts 153°
2026-05-05 02:08 28.67306 -81.46831 9287 ft 264 kts 153°
2026-05-05 02:09 28.65684 -81.45860 9028 ft 262 kts 153°
2026-05-05 02:09 28.64073 -81.44897 8805 ft 259 kts 153°
2026-05-05 02:09 28.62506 -81.43959 8697 ft 251 kts 153°
2026-05-05 02:09 28.60977 -81.43049 8563 ft 245 kts 155°
2026-05-05 02:10 28.59351 -81.42567 8468 ft 242 kts 176°
2026-05-05 02:10 28.57674 -81.42425 8399 ft 244 kts 175°
2026-05-05 02:10 28.55951 -81.42346 8162 ft 251 kts 180°
2026-05-05 02:10 28.54213 -81.42354 7911 ft 249 kts 180°
2026-05-05 02:11 28.52479 -81.42374 7649 ft 248 kts 180°
2026-05-05 02:11 28.50754 -81.42389 7388 ft 247 kts 180°
2026-05-05 02:11 28.49041 -81.42398 7131 ft 246 kts 179°
2026-05-05 02:11 28.47326 -81.42402 6881 ft 245 kts 179°
2026-05-05 02:12 28.45625 -81.42409 6625 ft 244 kts 179°
2026-05-05 02:12 28.42231 -81.42416 6102 ft 243 kts 179°
2026-05-05 02:12 28.40548 -81.42418 5858 ft 242 kts 179°
2026-05-05 02:13 28.38862 -81.42417 5602 ft 241 kts 178°
2026-05-05 02:13 28.37184 -81.42416 5349 ft 241 kts 178°
2026-05-05 02:13 28.35519 -81.42416 5090 ft 239 kts 178°
2026-05-05 02:13 28.33866 -81.42285 4832 ft 236 kts 160°
2026-05-05 02:14 28.32552 -81.41286 4619 ft 225 kts 128°
2026-05-05 02:14 28.31726 -81.39853 4423 ft 216 kts 115°
2026-05-05 02:14 28.31095 -81.38311 4198 ft 209 kts 113°
2026-05-05 02:14 28.30510 -81.36853 3981 ft 202 kts 113°
2026-05-05 02:15 28.29933 -81.35436 3791 ft 196 kts 114°
2026-05-05 02:15 28.29360 -81.34042 3600 ft 193 kts 114°
2026-05-05 02:15 28.28789 -81.32664 3420 ft 193 kts 114°
2026-05-05 02:15 28.28327 -81.31243 3215 ft 192 kts 94°
2026-05-05 02:16 28.28564 -81.29778 3037 ft 192 kts 64°
2026-05-05 02:16 28.29474 -81.28655 2711 ft 200 kts 32°
2026-05-05 02:16 28.30816 -81.28228 2400 ft 204 kts
2026-05-05 02:16 28.32248 -81.28159 2010 ft 207 kts
2026-05-05 02:17 28.33673 -81.28145 1723 ft 202 kts
2026-05-05 02:17 28.35038 -81.28162 1460 ft 190 kts
2026-05-05 02:17 28.36308 -81.28177 1217 ft 175 kts
2026-05-05 02:17 28.37475 -81.28188 932 ft 166 kts
2026-05-05 02:18 28.38629 -81.28204 633 ft 164 kts
2026-05-05 02:18 28.39740 -81.28228 480 ft 155 kts
2026-05-05 02:18 28.40802 -81.28233 384 ft 152 kts
2026-05-05 02:18 28.41865 -81.28234 155 ft 153 kts
2026-05-05 02:19 28.42881 -81.28239 97 ft 131 kts 358°
2026-05-05 02:19 28.43515 -81.28242 94 ft 43 kts 360°
2026-05-05 02:19 28.43755 -81.28261 97 ft 21 kts 342°
2026-05-05 02:19 28.43822 -81.28302 97 ft 2 kts 317°
2026-05-05 02:20 28.43836 -81.28316 98 ft 3 kts 317°
2026-05-05 02:20 28.43865 -81.28358 95 ft 10 kts 295°
2026-05-05 02:20 28.43873 -81.28471 94 ft 14 kts 271°
2026-05-05 02:20 28.43873 -81.28551 98 ft 11 kts 270°
2026-05-05 02:21 28.43873 -81.28658 100 ft 16 kts 269°
2026-05-05 02:21 28.43873 -81.28750 104 ft 9 kts 270°
2026-05-05 02:21 28.43872 -81.28851 106 ft 16 kts 269°
2026-05-05 02:21 28.43871 -81.29003 106 ft 22 kts 269°
2026-05-05 02:22 28.43869 -81.29159 100 ft 17 kts 269°
2026-05-05 02:22 28.43835 -81.29256 96 ft 10 kts 202°
2026-05-05 02:22 28.43739 -81.29263 96 ft 13 kts 179°
2026-05-05 02:22 28.43648 -81.29262 97 ft 14 kts 179°
2026-05-05 02:23 28.43581 -81.29268 98 ft 11 kts 204°
2026-05-05 02:23 28.43553 -81.29370 98 ft 12 kts 268°
2026-05-05 02:23 28.43551 -81.29454 99 ft 12 kts 269°
2026-05-05 02:23 28.43551 -81.29477 96 ft 0 kts 269°
2026-05-05 02:24 28.43550 -81.29560 95 ft 15 kts 269°
2026-05-05 02:24 28.43549 -81.29674 96 ft 13 kts 269°
2026-05-05 02:25 28.43550 -81.29762 94 ft 7 kts 282°
2026-05-05 02:25 28.43626 -81.29808 95 ft 14 kts 359°
2026-05-05 02:25 28.43743 -81.29822 97 ft 31 kts 341°
2026-05-05 02:25 28.43854 -81.29908 95 ft 11 kts 308°
2026-05-05 02:26 28.43899 -81.30049 98 ft 24 kts 276°
2026-05-05 02:26 28.43905 -81.30207 101 ft 17 kts 273°
2026-05-05 02:26 28.43911 -81.30336 101 ft 14 kts 273°
2026-05-05 02:26 28.43917 -81.30447 105 ft 20 kts 273°
2026-05-05 02:27 28.43924 -81.30588 103 ft 14 kts 274°
2026-05-05 02:27 28.43935 -81.30756 108 ft 23 kts 274°
2026-05-05 02:27 28.43943 -81.30907 106 ft 16 kts 271°
2026-05-05 02:27 28.43940 -81.31087 106 ft 21 kts 268°
2026-05-05 02:28 28.43935 -81.31211 107 ft 19 kts 266°
2026-05-05 02:28 28.43927 -81.31343 106 ft 16 kts 266°
2026-05-05 02:28 28.43899 -81.31451 103 ft 10 kts 214°
2026-05-05 02:28 28.43801 -81.31446 102 ft 19 kts 159°
2026-05-05 02:29 28.43719 -81.31434 100 ft 16 kts 219°
2026-05-05 02:29 28.43704 -81.31554 98 ft 13 kts 261°
2026-05-05 02:29 28.43610 -81.31639 95 ft 18 kts 193°
2026-05-05 02:29 28.43494 -81.31666 96 ft 16 kts 191°
2026-05-05 02:30 28.43387 -81.31690 96 ft 19 kts 192°
2026-05-05 02:30 28.43293 -81.31681 93 ft 10 kts 128°
2026-05-05 02:30 28.43275 -81.31629 93 ft 5 kts 109°
2026-05-05 02:30 28.43308 -81.31576 93 ft 9 kts 21°
2026-05-05 02:31 28.43320 -81.31572 93 ft 2 kts 17°
2026-05-05 02:31 28.43330 -81.31568 93 ft 0 kts 16°